DCAAF EDDF-EGLL

Flight info

Callsign DCAAF
Flight time N/A
Altitude 38000
Route OBOKA3W OBOKA Z29 TORNU DCT ABNED L980 LOGAN
Aircraft A20N/M-SDE2E3FGHIRWXY/LB1

Departure

Time N/A
Airport Frankfurt Main Airport (EDDF)

Arrival

Time 2026-05-04 18:35
Airport London Heathrow Airport (EGLL)
Time Latitude Longitude Altitude Speed Heading
2026-05-04 18:14 51.73211 1.37083 25019 ft 407 kts 262°
2026-05-04 18:14 51.72913 1.32547 25021 ft 406 kts 262°
2026-05-04 18:14 51.72616 1.28029 25020 ft 406 kts 262°
2026-05-04 18:15 51.72013 1.18969 25020 ft 406 kts 262°
2026-05-04 18:15 51.71409 1.09979 25012 ft 405 kts 262°
2026-05-04 18:15 51.71104 1.05472 24733 ft 404 kts 262°
2026-05-04 18:16 51.70795 1.00950 24054 ft 408 kts 262°
2026-05-04 18:16 51.70479 0.96364 23042 ft 416 kts 262°
2026-05-04 18:16 51.70157 0.91703 22093 ft 419 kts 262°
2026-05-04 18:17 51.69514 0.82467 20778 ft 411 kts 262°
2026-05-04 18:17 51.69195 0.77913 20129 ft 407 kts 262°
2026-05-04 18:17 51.68561 0.68952 19118 ft 393 kts 262°
2026-05-04 18:18 51.68256 0.64659 18950 ft 378 kts 262°
2026-05-04 18:18 51.67961 0.60539 18814 ft 363 kts 262°
2026-05-04 18:18 51.67738 0.56556 18672 ft 351 kts 265°
2026-05-04 18:18 51.67635 0.52700 18528 ft 339 kts 266°
2026-05-04 18:19 51.67440 0.45368 18221 ft 319 kts 264°
2026-05-04 18:19 51.67112 0.41815 18070 ft 323 kts 256°
2026-05-04 18:19 51.66637 0.38281 17875 ft 324 kts 257°
2026-05-04 18:20 51.66202 0.34706 17527 ft 325 kts 258°
2026-05-04 18:20 51.65843 0.31127 17095 ft 324 kts 260°
2026-05-04 18:20 51.65539 0.27550 16698 ft 321 kts 261°
2026-05-04 18:20 51.65259 0.23978 16224 ft 321 kts 262°
2026-05-04 18:21 51.64993 0.20446 15971 ft 313 kts 262°
2026-05-04 18:21 51.64738 0.17032 15856 ft 301 kts 262°
2026-05-04 18:21 51.64497 0.13760 15737 ft 289 kts 263°
2026-05-04 18:21 51.64323 0.10604 15610 ft 278 kts 265°
2026-05-04 18:22 51.64216 0.07518 15319 ft 274 kts 266°
2026-05-04 18:22 51.64119 0.04474 15078 ft 270 kts 266°
2026-05-04 18:22 51.64017 0.01434 15027 ft 275 kts 266°
2026-05-04 18:22 51.63905 -0.01637 15046 ft 274 kts 266°
2026-05-04 18:23 51.63799 -0.04669 14916 ft 269 kts 266°
2026-05-04 18:23 51.63697 -0.07376 14588 ft 270 kts 266°
2026-05-04 18:23 51.63579 -0.10371 14282 ft 267 kts 266°
2026-05-04 18:23 51.63461 -0.13340 13972 ft 264 kts 266°
2026-05-04 18:24 51.63338 -0.16300 13541 ft 265 kts 266°
2026-05-04 18:24 51.63217 -0.19230 13222 ft 262 kts 266°
2026-05-04 18:24 51.63099 -0.22135 12925 ft 258 kts 266°
2026-05-04 18:24 51.62984 -0.25012 12500 ft 259 kts 266°
2026-05-04 18:25 51.62869 -0.27901 12212 ft 255 kts 265°
2026-05-04 18:25 51.62761 -0.30720 11854 ft 253 kts 266°
2026-05-04 18:25 51.62649 -0.33594 11193 ft 262 kts 266°
2026-05-04 18:25 51.62534 -0.36591 10266 ft 276 kts 265°
2026-05-04 18:26 51.62422 -0.39748 9261 ft 289 kts 266°
2026-05-04 18:26 51.62300 -0.43032 8260 ft 299 kts 265°
2026-05-04 18:26 51.62173 -0.46398 7513 ft 300 kts 266°
2026-05-04 18:26 51.62042 -0.49675 7192 ft 286 kts 266°
2026-05-04 18:27 51.61914 -0.52763 7049 ft 267 kts 265°
2026-05-04 18:27 51.61799 -0.55619 7017 ft 245 kts 265°
2026-05-04 18:27 51.61691 -0.58269 6895 ft 235 kts 265°
2026-05-04 18:27 51.61582 -0.60890 6493 ft 236 kts 266°
2026-05-04 18:28 51.61469 -0.63508 6102 ft 232 kts 265°
2026-05-04 18:28 51.61196 -0.66052 5569 ft 233 kts 246°
2026-05-04 18:28 51.60203 -0.68087 5029 ft 235 kts 215°
2026-05-04 18:28 51.58808 -0.69451 4541 ft 235 kts 211°
2026-05-04 18:29 51.57392 -0.70776 4161 ft 235 kts 211°
2026-05-04 18:29 51.55977 -0.72125 4028 ft 241 kts 211°
2026-05-04 18:29 51.54562 -0.73489 3982 ft 238 kts 211°
2026-05-04 18:29 51.53134 -0.74872 3734 ft 237 kts 211°
2026-05-04 18:30 51.50165 -0.76811 3071 ft 232 kts 172°
2026-05-04 18:30 51.48654 -0.75949 3004 ft 231 kts 140°
2026-05-04 18:30 51.47635 -0.74055 2999 ft 223 kts 120°
2026-05-04 18:31 51.47115 -0.71734 2999 ft 221 kts 89°
2026-05-04 18:31 51.47292 -0.69430 3002 ft 196 kts 78°
2026-05-04 18:31 51.47440 -0.68054 2993 ft 176 kts 79°
2026-05-04 18:31 51.47557 -0.66250 2994 ft 151 kts 83°
2026-05-04 18:32 51.47607 -0.64628 3002 ft 146 kts 85°
2026-05-04 18:32 51.47635 -0.62979 2997 ft 147 kts 86°
2026-05-04 18:32 51.47648 -0.61353 2991 ft 149 kts 88°
2026-05-04 18:32 51.47637 -0.59633 2426 ft 163 kts 86°
2026-05-04 18:33 51.47699 -0.57766 1880 ft 167 kts 82°
2026-05-04 18:33 51.47763 -0.55969 1530 ft 160 kts 86°
2026-05-04 18:33 51.47696 -0.54227 1175 ft 155 kts 88°
2026-05-04 18:33 51.47735 -0.52524 816 ft 150 kts 86°
2026-05-04 18:34 51.47746 -0.50849 459 ft 151 kts 89°
2026-05-04 18:34 51.47753 -0.49216 223 ft 141 kts 89°
2026-05-04 18:34 51.47754 -0.47720 86 ft 128 kts 90°
2026-05-04 18:34 51.47764 -0.46654 89 ft 79 kts 87°
2026-05-04 18:35 51.47767 -0.45831 87 ft 73 kts 90°
2026-05-04 18:35 51.47770 -0.45060 91 ft 39 kts 92°
2026-05-04 18:35 51.47691 -0.44830 92 ft 20 kts 146°
2026-05-04 18:35 51.47656 -0.44791 89 ft 0 kts 146°
2026-05-04 18:37 51.47655 -0.44790 89 ft 1 kts 146°
2026-05-04 18:38 51.47620 -0.44764 86 ft 9 kts 144°
2026-05-04 18:38 51.47583 -0.44670 90 ft 2 kts 130°
2026-05-04 18:38 51.47567 -0.44653 88 ft 6 kts 159°
2026-05-04 18:38 51.47513 -0.44612 88 ft 10 kts 138°
2026-05-04 18:39 51.47443 -0.44558 86 ft 12 kts 180°
2026-05-04 18:39 51.47350 -0.44562 89 ft 14 kts 181°
2026-05-04 18:39 51.47255 -0.44560 87 ft 14 kts 177°
2026-05-04 18:39 51.47153 -0.44558 88 ft 16 kts 179°
2026-05-04 18:40 51.47030 -0.44557 86 ft 18 kts 174°
2026-05-04 18:40 51.46920 -0.44556 86 ft 13 kts 180°
2026-05-04 18:40 51.46860 -0.44558 86 ft 7 kts 180°
2026-05-04 18:40 51.46815 -0.44556 86 ft 0 kts 178°
2026-05-04 18:43 51.46813 -0.44556 86 ft 0 kts 178°
2026-05-04 18:46 51.46809 -0.44556 86 ft 0 kts 178°
2026-05-04 18:46 51.46781 -0.44558 86 ft 10 kts 192°
2026-05-04 18:47 51.46754 -0.44658 88 ft 12 kts 267°
2026-05-04 18:47 51.46751 -0.44817 86 ft 17 kts 269°
2026-05-04 18:47 51.46749 -0.45123 86 ft 35 kts 269°
2026-05-04 18:47 51.46750 -0.45509 86 ft 32 kts 270°
2026-05-04 18:48 51.46760 -0.45720 87 ft 8 kts 315°
2026-05-04 18:48 51.46825 -0.45732 86 ft 10 kts